PEGASUS DEB

Satellite information

Favourite Embed

Satellite Type and Status

DEBRISIN ORBIT

Key statistics

Satellite PEGASUS DEB at a glance.

Uptime

11532

Days in orbit

Revolutions

≈ 15.4

Per day

Orbit

LEO

Low Earth Orbit

Inclination

82.1

Latest

Satellite identification and parameters

Extended collection of information and parameters for PEGASUS DEB.

Object identification

Identified? True

Debris? True

Object name: PEGASUS DEB

International designator: 1994-029HQ

Object number (NORAD): 24165

Object ID (CCSDS): 24165

Country: UNITED STATES OF AMERICA (US)

Current information (Y/N): Y

RCS size: SMALL

Orbital parameters

Period: 93.366 minutes

Inclination: 82.1431 deg

SMA: 6817.393 km

Apoapsis: 466.994 km

Periapsis: 411.522 km

RAAN: 325.1653 deg

Eccentricy: 0.0040684

Argument of periapsis: 245.0036 deg

Mean anomaly: 114.6982 deg

Mean motion: 15.42322786 rev/day

Mean motion (dot): 0.00287137 rev/day2

B* drag term: 0.0062588801 1/REarth

Two-line elements (TLE)

Creation date: Dec. 13, 2025, 4:32 a.m.

Reference frame: TEME

Reference center: EARTH

Epoch: Dec. 12, 2025, 11:46 p.m. UTC

TLE line 0: 0 PEGASUS DEB

TLE line 1: 1 24165U 94029HQ 25346.99091786 .00287137 00000-0 62589-2 0 9991

TLE line 2: 2 24165 82.1431 325.1653 0040684 245.0036 114.6982 15.42322786532759

Live tracking on map

Real-time ground track for satellite PEGASUS DEB.

In-orbit conjunctions

A list of the most updated potential collisions computed for object PEGASUS DEB.

Target Orbit TCA Probability of collision Miss distance Type
ELECTRON KICK STAGE R/B SSO 2025-06-02 12:43:34 0.0001971139 268.0 (m) ROCKET BODY
ERS 1 DEB SSO 2024-09-11 02:44:20 0.0003349889 45.0 (m) DEBRIS

Associated space launch

PEGASUS DEB was lifted into orbit during the mission ‘Pegasus HAPS | Space Test Experiments Platform 2 (STEP-2)’, on board a Pegasus HAPS space rocket.

The launch took place on May 19, 1994, 5:03 p.m. from Edwards Air Force Base.

For more information about the launch, click the button.

Launch to space Pegasus HAPS | Space Test Experiments Platform 2 (STEP-2)
Pegasus HAPS | Space Test Experiments Platform 2 (STEP-2)

Agency: N/A

Status: Launch Successful

Launch date: May 19, 1994, 5:03 p.m. UTC

Rocket: Pegasus HAPS

Launch pad: Edwards Air Force Base

Location: Air launch to orbit

...

Latest news about this satellite

There are no fresh news available about this satellite. Check back as we update our databases every day.


Newsletter sign-up

Weekly statistics, charts and insights to help you stay on top of the space industry.